Location: Unspecified
(52.4292°N, 19.3359°E)
Time: 17:23:42
(UTC+02:00)

Transit 2A Rocket - Pass Details

Date: 21 May 2024
Orbit: 583 x 910 km, 66.7° (Epoch: 22 June)

Event Time Altitude Azimuth Distance (km) Brightness Sun altitude
Rises 14:52:10 0° 312° (NW) 3,435 8.5 48.9°
Reaches altitude 10° 14:55:25 10° 293° (WNW) 2,538 8.1 48.5°
Maximum altitude 14:59:08 17° 254° (WSW) 2,086 8.3 48.1°
Drops below altitude 10° 15:02:55 10° 215° (SW) 2,587 8.6 47.6°
Sets 15:06:17 0° 197° (SSW) 3,529 8.9 47.2°
